Wetbulb
56.66 56.69 57.02 57.14 56.31 56.38 56.83 57.22 57.05 56.87 57.83 57.22 56.38 56.53 56.63 56.50 55.53 50.63 44.55 49.80 51.59 54.06 54.61 46.37 43.81 42.67 42.04 39.89 39.43 36.92 30.45 28.06 31.10 32.07 32.61 35.70 34.68 37.49 38.19 36.65 37.18 37.99 38.28 39.62 42.86
56.99 56.77 56.80 57.02 56.76 55.94 56.31 56.65 56.75 56.78 56.81 57.74 55.72 55.71 56.15 55.99 49.52 46.66 52.14 54.66 53.86 53.28 46.43 43.37 41.74 41.88 38.40 38.58 37.58 34.08 28.36 31.76 34.22 32.76 32.33 34.88 33.99 34.73 35.28 35.34 34.90 36.40 38.99 40.91 43.50
57.18 57.23 56.97 57.06 56.13 55.97 56.08 56.14 56.21 56.32 56.64 57.33 55.75 55.55 55.71 53.28 45.02 45.41 54.80 54.76 53.67 52.02 47.60 45.30 44.24 42.12 36.92 37.36 36.38 34.19 30.98 34.87 35.69 36.32 36.57 35.62 34.64 34.88 34.07 33.76 36.40 35.36 38.03 40.07 39.51
57.53 57.60 57.42 57.40 56.75 56.47 56.25 56.14 56.28 55.98 56.39 57.07 55.52 55.14 55.35 48.51 36.47 45.63 54.28 53.47 52.58 48.18 45.96 44.29 41.66 37.84 35.84 35.19 38.32 32.62 36.40 36.21 38.47 38.03 36.48 34.70 35.63 34.36 34.97 35.57 38.00 36.65 40.10 40.01 39.39
57.91 57.99 57.80 57.62 58.07 57.58 57.48 56.59 56.39 56.31 56.09 56.71 54.95 54.61 48.73 42.61 42.76 47.88 54.14 51.89 47.98 46.30 43.16 42.41 39.50 38.48 35.63 36.81 37.43 33.96 35.44 38.10 38.50 38.09 36.76 36.88 35.48 34.67 35.86 38.25 38.76 38.18 39.50 39.70 39.95
57.91 57.74 57.76 57.98 58.04 58.23 57.40 56.44 56.35 55.92 55.68 55.93 54.66 53.86 43.59 38.69 46.34 47.65 46.97 46.22 46.65 43.99 42.08 41.50 39.95 39.85 36.89 36.20 35.20 36.14 36.01 36.02 36.98 36.78 36.59 35.18 33.25 34.65 36.99 36.52 36.76 37.00 36.72 38.49 40.17
58.01 57.76 57.70 57.97 58.09 57.81 56.23 55.73 55.60 55.50 55.88 54.31 54.42 50.37 43.82 41.76 45.60 46.19 46.05 44.81 45.24 44.63 41.32 41.98 41.72 38.38 37.62 34.53 37.96 36.08 32.80 34.60 35.73 35.88 34.65 35.39 33.02 32.52 37.33 36.64 36.10 36.30 36.20 36.45 38.21
57.81 57.71 57.68 57.84 58.04 56.10 55.26 55.05 55.47 55.32 55.67 53.54 53.82 46.58 39.38 45.10 43.94 45.24 45.69 43.85 44.98 45.26 43.74 43.21 42.54 39.50 36.89 37.44 35.98 32.11 30.45 27.53 35.03 34.84 34.12 33.23 28.55 35.57 36.25 34.00 33.66 35.58 34.94 35.45 36.56
57.53 57.45 57.59 57.70 56.34 54.90 54.27 54.36 55.46 54.52 53.96 52.86 46.70 42.74 38.64 47.46 42.29 44.82 45.04 42.77 43.62 43.62 42.87 44.55 41.56 36.71 36.56 31.29 28.65 29.25 25.00 26.75 32.27 35.16 33.48 31.49 28.28 35.17 36.08 35.83 34.70 35.13 34.30 34.16 34.56
55.27 54.95 54.76 56.07 54.09 53.11 52.61 53.70 51.90 51.16 50.79 50.93 48.02 39.71 40.03 38.22 42.50 43.98 44.42 44.93 42.11 41.46 40.50 38.43 35.74 31.43 29.99 29.01 23.82 26.18 25.80 28.83 28.61 31.24 31.37 29.16 28.60 32.63 35.57 34.80 33.33 30.50 29.02 29.88 30.47
51.79 52.45 52.52 51.75 51.91 52.28 51.85 48.83 46.09 44.00 44.34 40.32 39.77 39.54 39.67 42.04 44.40 42.07 44.02 42.27 41.26 38.33 32.85 35.50 29.97 27.90 30.96 32.25 32.14 29.91 27.23 26.12 28.22 31.73 29.03 28.06 27.97 30.97 33.77 31.33 28.98 28.53 28.41 28.53 29.09
50.44 50.59 51.04 51.56 52.15 51.91 51.05 45.95 46.18 46.22 40.63 44.49 44.06 41.96 41.60 42.48 37.53 40.19 43.86 37.67 36.38 32.19 33.91 30.83 27.78 33.76 34.98 34.32 32.27 28.98 25.86 25.19 28.96 31.30 28.35 26.80 27.65 28.73 29.74 28.28 28.03 28.37 27.86 27.77 27.73
49.69 49.68 49.68 50.04 51.00 49.82 47.48 46.44 48.49 47.87 40.58 43.01 43.38 41.66 39.54 40.99 37.49 36.99 40.09 37.64 34.21 32.18 32.07 29.53 32.00 35.21 33.71 31.27 29.37 28.13 25.73 25.35 25.77 27.92 27.97 25.96 22.89 24.86 28.45 28.83 29.70 29.28 28.65 28.42 27.03
47.97 47.91 48.44 49.14 46.58 47.06 44.52 48.67 49.06 48.61 33.90 36.66 37.04 40.16 38.61 39.87 34.93 39.38 40.71 37.10 34.01 31.75 32.10 30.45 34.22 32.76 30.64 29.49 29.97 26.33 29.11 28.06 26.42 21.21 19.62 24.97 15.22 23.27 26.40 26.46 27.94 27.89 27.30 26.27 26.32
47.43 46.83 47.23 48.49 44.24 44.07 45.73 48.44 49.01 46.51 22.74 35.13 34.73 39.01 37.80 38.13 34.25 33.96 39.36 36.65 31.19 31.89 31.75 29.00 29.81 29.89 28.22 30.11 31.32 26.74 29.87 27.24 25.77 21.61 17.41 21.21 12.43 21.65 25.31 23.45 24.58 25.42 26.38 26.69 27.28
46.26 46.19 46.72 45.44 44.91 45.73 47.99 47.91 46.36 30.30 22.01 28.67 31.08 29.99 30.28 33.20 32.70 33.62 34.55 37.68 37.56 32.87 31.58 30.02 33.48 32.24 30.92 31.53 31.24 31.52 28.63 27.52 25.32 22.01 14.72 17.42 17.91 19.51 21.09 22.54 24.86 25.90 27.30 27.66 27.26
45.15 45.23 43.83 46.13 42.20 46.96 46.96 43.62 29.20 23.70 32.72 26.10 25.23 28.63 28.55 27.89 29.71 30.31 28.77 28.43 27.58 24.13 24.09 28.21 29.11 31.25 32.81 28.24 30.84 28.08 24.68 11.03 11.36 11.69 10.16 20.81 18.58 22.06 23.93 25.24 24.74 23.74 25.69 26.58 28.17
45.04 44.46 43.36 43.33 46.86 46.58 44.10 33.73 22.32 29.02 26.77 30.16 28.49 28.03 26.74 29.67 28.75 28.95 26.31 24.84 29.59 28.57 24.08 22.39 19.90 28.05 31.54 28.16 25.14 26.38 23.48 16.17 6.57 9.62 12.16 21.40 11.64 21.23 22.34 19.62 16.66 20.71 20.47 27.09 28.19
44.23 38.09 41.88 42.23 45.44 45.57 37.07 25.03 25.05 28.35 31.24 27.66 29.31 24.18 26.39 28.67 28.72 28.41 26.51 25.71 29.53 31.54 23.58 20.99 22.66 29.84 30.06 30.66 28.76 25.43 21.35 24.91 14.93 9.94 12.23 13.69 19.68 23.36 25.80 21.58 20.47 20.76 26.69 26.78 26.75
35.75 35.62 37.86 43.92 45.46 42.03 31.80 28.26 31.49 32.77 34.94 32.14 26.34 27.98 23.61 25.47 26.35 27.20 27.24 30.04 30.73 33.36 33.63 27.16 21.61 28.49 28.54 29.69 29.67 27.11 27.60 18.66 13.62 3.59 5.75 10.85 12.88 17.00 18.97 17.10 21.38 18.79 22.98 25.00 25.24
34.71 32.52 38.37 44.61 44.36 37.20 27.19 29.09 31.53 35.95 35.26 30.51 29.98 29.36 28.09 26.30 28.30 26.87 27.94 29.13 31.84 31.87 33.34 28.71 23.84 24.21 27.06 20.82 22.22 25.56 21.23 22.09 20.26 14.19 7.38 4.62 11.15 13.45 17.87 18.59 17.47 19.90 24.34 21.70 21.90
34.52 25.90 41.03 44.91 32.67 32.03 30.40 28.92 35.17 33.40 35.53 34.08 33.72 30.99 30.50 30.16 27.72 28.26 27.44 28.43 33.65 33.19 29.09 30.29 24.64 20.17 20.74 25.29 27.45 23.32 19.14 20.25 12.50 8.69 9.98 9.94 12.98 11.88 18.15 16.34 15.73 21.74 25.39 21.99 21.84
30.89 30.75 42.57 42.30 25.31 26.78 31.89 31.58 33.34 32.22 32.83 32.89 31.66 32.15 28.93 26.64 26.35 29.25 28.10 32.31 33.90 31.74 28.41 28.64 22.20 17.91 20.04 24.12 26.36 24.82 24.53 19.21 14.16 13.98 12.27 10.83 12.36 11.00 7.05 13.62 20.58 19.05 19.21 22.03 23.23
33.25 27.11 33.85 35.71 34.69 26.35 27.48 28.14 29.40 33.51 33.62 34.38 33.39 31.74 27.53 23.30 29.03 26.16 28.21 31.64 32.97 32.49 34.59 31.41 22.49 16.49 16.61 14.83 15.05 18.51 20.10 22.20 18.30 11.52 5.28 10.36 7.34 9.52 12.84 14.87 15.95 17.21 19.23 15.63 15.81
32.92 29.11 30.43 25.86 27.25 30.03 30.11 28.27 28.64 28.27 32.79 33.34 30.75 27.95 26.89 23.30 25.03 22.41 28.28 29.55 32.14 34.12 31.36 26.41 19.13 17.73 16.23 23.13 21.83 10.79 16.85 20.64 23.14 13.67 13.97 9.03 12.67 11.05 14.15 17.32 14.68 14.83 13.72 15.36 15.67
30.72 29.62 29.65 29.46 27.27 28.26 29.00 26.00 28.04 29.02 30.03 29.48 25.09 28.18 25.73 23.84 25.33 22.43 27.65 27.26 26.76 31.50 28.12 27.20 19.32 14.20 13.98 10.12 6.13 18.67 15.32 14.79 21.04 22.11 14.40 9.25 17.66 17.72 10.93 4.59 10.44 12.34 11.96 11.68 11.83
33.18 37.27 32.34 25.33 25.37 27.06 24.63 27.48 28.89 30.39 31.50 32.62 30.68 27.55 25.10 26.07 28.54 29.36 30.55 30.77 29.46 25.49 23.92 23.23 16.96 13.36 9.62 9.88 11.73 9.05 13.94 14.79 13.46 7.62 22.76 19.71 18.82 7.72 10.11 8.76 9.63 10.43 14.81 22.51 15.52
MSLP
1019.59 1019.57 1019.15 1019.36 1019.09 1019.01 1018.75 1018.81 1018.69 1018.50 1018.21 1018.00 1018.15 1017.83 1017.60 1017.37 1017.06 1016.92 1016.53 1015.99 1015.95 1015.96 1015.95 1015.93 1015.83 1015.83 1015.93 1016.23 1016.39 1016.72 1017.50 1017.43 1016.02 1015.26 1014.56 1014.23 1014.01 1013.70 1013.49 1013.52 1013.53 1013.90 1014.27 1014.49 1015.04
1019.59 1019.41 1019.24 1019.10 1019.08 1018.94 1018.71 1018.42 1018.55 1018.38 1018.13 1017.93 1017.83 1017.78 1017.65 1017.46 1017.08 1016.72 1015.79 1015.79 1015.90 1015.92 1015.99 1015.97 1015.91 1015.82 1016.27 1016.40 1016.65 1016.89 1017.44 1016.54 1015.41 1014.92 1014.70 1014.62 1014.50 1014.38 1014.13 1013.93 1014.15 1014.20 1014.60 1015.07 1015.43
1019.34 1019.32 1019.21 1018.95 1018.86 1018.76 1018.67 1018.42 1018.41 1018.22 1017.99 1017.79 1017.69 1017.67 1017.56 1017.50 1017.36 1015.71 1015.57 1015.76 1015.95 1015.93 1016.05 1016.02 1016.08 1016.04 1016.33 1016.45 1016.51 1016.66 1016.56 1015.81 1015.22 1014.94 1014.88 1014.81 1014.74 1014.73 1014.56 1014.18 1014.14 1014.32 1014.87 1015.60 1016.08
1019.06 1018.87 1018.99 1018.63 1018.56 1018.62 1018.39 1018.34 1018.10 1017.99 1018.15 1017.69 1017.59 1017.55 1017.46 1017.67 1017.10 1015.47 1015.47 1015.64 1015.84 1016.04 1015.94 1015.94 1016.07 1016.38 1016.52 1016.56 1016.30 1016.57 1015.90 1015.84 1015.41 1015.26 1015.24 1015.14 1014.96 1015.02 1014.82 1014.10 1014.02 1014.41 1014.63 1015.42 1015.97
1018.42 1018.41 1018.44 1018.45 1017.92 1017.93 1018.14 1017.80 1017.95 1017.85 1017.64 1017.66 1017.39 1017.59 1017.51 1017.52 1016.14 1015.47 1015.46 1015.63 1015.81 1016.09 1016.14 1015.94 1016.05 1016.08 1016.23 1016.23 1016.24 1016.37 1016.04 1015.82 1015.47 1015.47 1015.42 1015.29 1015.23 1015.45 1014.56 1014.02 1014.16 1014.50 1015.05 1015.47 1015.65
1017.74 1017.70 1017.80 1017.88 1017.66 1017.61 1017.60 1017.75 1017.74 1017.55 1017.40 1017.51 1017.41 1017.27 1017.76 1017.08 1015.36 1015.48 1015.59 1015.66 1015.64 1015.92 1015.95 1015.98 1016.03 1016.06 1016.13 1016.19 1016.23 1016.11 1016.13 1015.94 1015.61 1015.31 1015.40 1015.47 1015.46 1015.43 1014.00 1014.02 1014.23 1014.28 1014.64 1015.07 1015.26
1016.95 1017.02 1017.14 1017.29 1017.21 1017.17 1017.33 1017.51 1017.38 1017.35 1017.19 1017.17 1017.28 1017.38 1017.16 1015.93 1015.37 1015.50 1015.74 1015.68 1015.55 1015.62 1015.84 1016.09 1016.12 1016.36 1016.35 1016.38 1016.50 1016.55 1016.69 1016.11 1015.53 1015.34 1015.43 1015.47 1015.63 1015.20 1014.15 1014.38 1014.50 1014.80 1014.90 1015.14 1015.31
1016.22 1016.39 1016.62 1016.63 1016.79 1016.91 1017.07 1017.12 1017.26 1016.89 1016.98 1016.93 1017.14 1017.35 1016.46 1015.30 1015.48 1015.67 1015.72 1015.74 1015.67 1015.66 1015.69 1015.97 1016.19 1016.51 1016.58 1016.67 1016.84 1017.15 1017.32 1016.94 1015.65 1015.71 1015.87 1016.03 1015.78 1014.81 1014.55 1014.58 1014.72 1015.01 1015.24 1015.26 1015.27
1015.60 1015.86 1015.94 1016.04 1016.32 1016.61 1016.72 1016.81 1016.86 1016.72 1016.73 1016.75 1017.12 1017.17 1016.02 1015.29 1015.38 1015.40 1015.48 1015.74 1015.89 1015.94 1015.89 1015.91 1016.24 1016.85 1017.18 1017.39 1017.77 1017.75 1017.76 1017.31 1016.26 1015.89 1016.18 1016.49 1016.19 1015.22 1015.04 1015.36 1015.68 1015.78 1015.89 1016.10 1015.91
1015.58 1015.74 1015.80 1015.60 1015.90 1016.33 1016.38 1016.63 1016.62 1016.52 1016.61 1016.69 1016.70 1017.14 1015.70 1014.91 1014.82 1015.11 1015.37 1015.66 1016.04 1016.36 1016.47 1016.46 1016.92 1017.32 1017.94 1018.09 1017.77 1017.62 1017.76 1017.25 1016.81 1016.79 1016.77 1017.11 1016.79 1016.28 1015.82 1016.12 1016.47 1016.88 1017.14 1017.17 1017.32
1016.47 1016.33 1015.96 1016.19 1016.14 1016.19 1016.44 1016.71 1017.10 1016.94 1016.46 1015.11 1014.73 1014.76 1014.54 1014.75 1014.79 1015.14 1015.26 1015.68 1016.11 1016.53 1016.72 1016.85 1017.43 1017.14 1016.84 1017.02 1017.02 1017.16 1017.32 1017.44 1017.18 1017.24 1017.43 1017.50 1017.62 1017.25 1016.68 1016.61 1017.21 1017.76 1018.12 1018.31 1018.50
1017.10 1016.62 1016.66 1016.19 1016.17 1016.17 1016.14 1015.78 1015.16 1014.71 1015.07 1014.40 1014.49 1014.39 1014.32 1014.40 1015.04 1015.33 1015.40 1015.76 1016.22 1016.50 1016.73 1017.38 1016.84 1016.20 1016.56 1016.94 1017.43 1017.66 1017.91 1017.97 1017.83 1017.86 1018.15 1018.27 1018.05 1017.91 1017.87 1017.86 1017.92 1018.11 1018.46 1018.66 1018.87
1017.04 1017.06 1017.00 1016.68 1015.92 1016.27 1015.78 1015.42 1015.18 1014.87 1014.71 1013.71 1013.37 1013.68 1013.73 1014.27 1014.43 1014.95 1015.48 1015.61 1015.74 1016.18 1016.40 1016.57 1015.96 1015.81 1016.39 1016.97 1017.52 1017.87 1018.15 1018.42 1018.85 1018.93 1019.04 1019.29 1018.53 1018.26 1018.48 1018.32 1018.39 1018.54 1018.67 1018.88 1019.00
1017.69 1017.40 1017.33 1016.86 1016.45 1016.10 1015.56 1015.25 1015.32 1015.27 1014.34 1013.22 1012.86 1012.55 1013.30 1013.72 1014.72 1014.60 1014.79 1015.18 1015.62 1015.73 1016.34 1016.42 1015.90 1016.05 1016.48 1016.96 1017.53 1018.44 1018.46 1018.91 1019.61 1020.31 1020.99 1020.54 1020.29 1018.94 1018.74 1018.76 1018.66 1018.84 1019.07 1019.06 1019.15
1017.60 1017.10 1017.08 1017.12 1016.71 1016.12 1015.66 1015.47 1015.25 1015.15 1013.89 1012.33 1012.50 1012.71 1012.86 1013.45 1014.11 1014.86 1014.91 1015.01 1015.18 1015.51 1016.17 1015.93 1016.10 1016.36 1016.79 1016.92 1017.49 1018.52 1019.11 1019.68 1020.55 1021.61 1022.25 1021.80 1022.32 1019.13 1019.34 1019.01 1018.72 1018.88 1019.04 1019.20 1019.29
1016.99 1016.63 1016.57 1016.60 1016.36 1015.53 1015.22 1015.44 1015.31 1015.14 1012.92 1012.73 1012.75 1012.90 1013.26 1013.74 1014.29 1014.89 1015.07 1015.03 1015.07 1015.68 1016.10 1016.35 1016.44 1016.75 1016.93 1017.46 1017.99 1018.95 1019.91 1020.63 1021.51 1022.56 1023.24 1022.15 1022.09 1019.88 1019.81 1019.16 1019.24 1019.47 1019.49 1019.57 1019.61
1016.50 1016.23 1016.14 1016.38 1015.63 1015.24 1015.20 1015.35 1014.76 1013.38 1012.69 1012.69 1012.82 1013.28 1013.37 1013.75 1014.48 1014.63 1015.10 1015.19 1015.10 1016.21 1016.52 1017.00 1017.25 1017.49 1017.47 1018.23 1018.92 1019.57 1020.46 1022.31 1023.20 1023.87 1023.26 1022.52 1022.44 1019.54 1019.44 1019.54 1019.94 1020.31 1020.23 1019.98 1019.74
1015.70 1015.79 1015.59 1015.40 1015.03 1015.00 1015.51 1015.33 1013.75 1012.02 1012.08 1011.71 1012.42 1013.48 1013.60 1013.55 1014.21 1014.69 1015.02 1015.25 1015.08 1015.16 1015.98 1016.84 1018.16 1018.02 1018.18 1018.43 1018.74 1019.82 1020.29 1021.34 1022.79 1024.02 1023.85 1022.94 1021.71 1019.60 1019.61 1019.86 1020.69 1020.79 1020.62 1020.35 1020.08
1015.28 1015.60 1015.06 1014.14 1014.47 1014.89 1015.10 1014.44 1013.04 1012.15 1011.11 1011.71 1012.90 1013.22 1013.44 1013.36 1013.57 1014.21 1014.66 1014.59 1014.34 1014.61 1015.15 1016.21 1017.85 1018.63 1018.91 1019.16 1019.41 1020.17 1020.74 1021.26 1022.62 1024.78 1024.67 1022.92 1021.11 1019.90 1020.13 1020.87 1021.12 1021.05 1020.86 1020.83 1020.73
1015.38 1015.43 1013.94 1013.10 1013.70 1014.59 1014.22 1013.34 1012.79 1012.40 1011.31 1011.53 1011.99 1012.50 1012.94 1013.46 1013.45 1013.66 1014.04 1013.53 1013.70 1013.94 1014.30 1015.57 1017.61 1019.05 1019.64 1019.81 1019.86 1019.87 1020.44 1021.73 1023.02 1024.58 1024.96 1023.30 1022.53 1020.92 1021.28 1021.71 1021.79 1021.71 1021.53 1021.29 1021.10
1015.56 1014.99 1013.23 1013.04 1013.68 1013.91 1013.01 1012.57 1012.43 1012.01 1011.79 1011.57 1011.86 1012.38 1012.60 1013.13 1013.07 1013.37 1013.33 1013.46 1013.46 1014.06 1014.37 1015.42 1016.99 1019.85 1020.15 1020.36 1020.07 1020.65 1020.88 1021.65 1022.51 1023.74 1024.68 1024.57 1022.07 1020.86 1021.44 1022.03 1022.12 1021.93 1021.75 1021.58 1021.55
1015.08 1014.61 1013.06 1012.99 1013.57 1013.20 1012.73 1012.02 1011.85 1011.85 1012.13 1011.47 1011.76 1012.23 1012.53 1012.68 1012.94 1013.28 1013.28 1013.20 1013.45 1013.96 1014.83 1015.60 1017.24 1019.42 1020.23 1020.45 1020.54 1020.68 1020.81 1021.41 1022.68 1024.02 1024.91 1024.97 1022.52 1021.06 1022.04 1022.18 1022.07 1021.97 1021.74 1021.81 1021.68
1014.54 1013.73 1013.03 1013.17 1012.82 1012.81 1012.45 1011.91 1012.00 1012.07 1012.00 1011.57 1011.80 1012.34 1012.50 1012.80 1013.35 1013.57 1013.69 1013.97 1014.05 1014.55 1014.93 1015.55 1017.25 1019.61 1020.85 1021.38 1021.19 1020.94 1020.91 1021.49 1022.45 1023.25 1024.63 1024.74 1022.66 1022.11 1022.84 1022.69 1022.20 1022.28 1022.02 1022.02 1021.92
1014.15 1013.61 1013.24 1013.21 1012.80 1012.73 1012.73 1012.28 1011.88 1012.11 1011.78 1011.82 1012.19 1012.66 1013.06 1013.41 1013.60 1013.98 1014.30 1014.70 1014.72 1015.01 1015.39 1015.89 1017.26 1018.20 1019.27 1019.67 1020.37 1021.22 1020.96 1021.43 1022.08 1023.50 1023.78 1023.22 1022.72 1022.87 1023.10 1022.94 1022.55 1022.43 1022.18 1022.22 1022.48
1013.70 1013.10 1012.98 1012.99 1012.96 1012.67 1012.42 1012.20 1012.13 1012.05 1011.86 1012.02 1012.07 1012.54 1012.99 1013.83 1014.20 1014.40 1014.61 1015.06 1015.47 1015.60 1016.17 1016.76 1018.08 1018.98 1019.69 1020.26 1021.05 1021.32 1021.23 1021.42 1021.66 1021.85 1022.28 1022.33 1022.82 1022.32 1022.59 1022.83 1022.54 1022.29 1022.25 1022.35 1022.51
1013.09 1013.07 1013.24 1012.92 1012.75 1012.88 1012.62 1012.27 1011.76 1011.92 1011.92 1012.06 1012.49 1012.61 1012.86 1013.39 1013.44 1014.10 1014.42 1014.98 1015.23 1016.25 1016.91 1017.65 1018.88 1019.76 1021.00 1021.63 1022.06 1022.35 1022.07 1021.74 1021.67 1021.39 1021.46 1022.08 1021.94 1021.69 1021.78 1022.46 1022.73 1022.96 1022.54 1022.66 1022.65
1012.72 1012.51 1012.59 1012.91 1012.86 1012.67 1012.08 1011.77 1011.64 1011.55 1011.63 1011.62 1012.18 1012.85 1013.02 1013.22 1013.37 1013.73 1013.99 1014.46 1015.07 1016.09 1017.27 1018.22 1019.31 1020.72 1022.03 1022.83 1023.07 1022.94 1020.95 1021.18 1021.09 1020.50 1020.87 1022.09 1021.31 1021.95 1022.63 1022.83 1022.40 1022.52 1022.49 1022.66 1022.71
Wind_Speed
8 8 5 7 6 7 7 9 9 9 10 10 11 9 8 8 10 1 4 2 4 1 1 2 0 1 3 1 1 3 3 3 5 4 2 5 3 4 2 3 3 2 5 3 11
11 9 8 7 6 8 8 8 9 10 10 10 9 8 8 7 1 6 3 5 3 0 2 2 3 3 2 1 1 4 4 8 3 0 2 2 2 4 4 3 2 3 2 4 13
12 12 10 8 8 8 9 9 10 10 10 11 9 8 6 3 3 5 7 6 3 2 0 0 2 3 3 3 4 5 6 4 2 3 3 2 3 3 4 5 9 5 5 5 5
14 13 12 10 9 10 9 10 9 10 12 11 9 6 3 1 7 3 7 6 3 1 2 3 3 4 3 5 4 3 7 4 3 1 2 3 1 4 6 7 2 2 7 8 9
14 13 13 13 13 11 10 10 10 10 10 11 7 4 1 2 8 6 7 4 3 2 3 4 5 5 5 4 2 4 3 3 4 7 5 2 6 5 11 12 9 6 6 11 11
17 15 13 13 15 12 8 7 8 9 9 10 6 0 2 6 3 6 6 4 3 3 3 4 4 3 2 3 4 1 3 6 7 7 5 4 3 5 10 4 6 4 7 10 14
19 16 15 14 15 9 7 7 8 9 9 7 5 2 3 10 4 6 6 3 3 3 4 1 2 3 1 1 2 2 6 6 5 2 4 4 6 9 11 7 7 8 8 6 11
19 16 15 15 12 9 7 7 9 9 9 6 3 2 7 2 3 4 3 2 1 2 4 4 3 2 3 1 3 1 3 4 2 5 1 2 8 5 4 1 2 6 7 6 8
17 14 15 15 12 9 6 6 9 9 7 3 2 3 7 3 4 4 4 5 4 2 2 3 3 3 2 4 4 2 4 6 5 1 3 3 6 6 4 6 9 9 8 7 7
6 3 4 6 6 6 3 4 6 3 2 2 4 1 3 6 5 5 2 7 3 3 3 3 4 3 2 4 6 7 5 5 5 2 1 4 11 10 12 7 8 7 6 6 6
14 14 8 2 3 3 2 3 3 2 5 10 8 4 4 3 3 3 4 5 4 2 5 3 4 9 12 9 2 4 3 4 3 1 2 6 8 11 12 4 6 5 5 6 7
10 12 13 11 11 7 3 4 4 4 5 15 7 6 4 5 4 4 5 7 6 5 5 3 8 7 5 6 6 3 3 5 5 1 1 4 11 1 5 3 3 4 5 4 3
12 13 13 13 10 4 4 3 4 1 3 5 9 10 6 7 5 12 10 5 5 7 10 7 3 7 6 5 5 4 5 3 3 6 1 7 6 2 1 2 4 4 3 2 1
8 9 12 16 3 2 4 3 1 4 4 7 8 7 6 8 4 3 8 5 5 11 8 5 4 7 4 5 6 4 3 4 4 4 3 3 7 3 3 2 1 1 1 2 1
7 3 7 8 5 4 3 1 3 0 7 4 6 3 5 10 10 2 1 2 7 7 7 6 8 6 3 4 5 5 3 4 4 3 5 1 4 7 4 3 2 3 1 1 3
8 7 11 6 4 4 4 2 2 4 8 5 4 6 7 4 3 4 3 0 2 4 3 3 1 3 4 4 4 6 5 4 4 3 1 5 5 5 5 6 3 3 4 6 6
9 11 8 4 3 2 4 2 5 7 2 6 5 6 5 7 5 5 7 7 8 7 5 2 2 1 2 6 2 4 5 3 5 2 7 3 1 9 4 5 4 3 6 7 6
11 13 8 8 4 7 3 3 8 4 6 4 5 8 7 7 4 7 8 7 6 2 4 8 4 7 1 3 7 5 6 6 8 4 4 3 7 7 6 2 5 5 6 6 7
10 3 4 6 10 5 3 6 3 4 5 9 6 5 3 4 6 6 8 7 9 10 7 6 3 2 4 1 1 5 3 3 7 4 3 4 7 4 4 3 4 6 6 7 7
1 3 6 5 9 4 4 7 4 4 2 3 4 5 6 6 5 7 10 5 6 7 3 5 7 2 2 0 3 2 4 4 3 3 5 5 6 7 4 5 4 5 6 7 7
1 3 3 6 5 3 5 5 4 4 4 5 2 4 5 7 6 5 8 1 3 4 5 5 5 3 3 5 7 4 2 3 4 4 6 2 9 6 8 8 6 6 5 6 6
2 3 1 3 6 4 5 7 7 2 4 1 3 3 4 4 4 3 4 2 4 5 7 3 5 4 3 1 0 2 5 5 6 6 2 4 10 3 7 7 5 6 4 5 4
3 4 1 2 5 9 2 1 5 6 5 2 2 1 1 3 4 3 4 4 4 3 6 6 2 6 2 1 2 5 6 4 4 4 6 7 8 3 4 5 5 6 5 4 4
2 3 3 3 2 4 4 3 2 3 3 3 5 3 3 3 4 4 4 2 3 3 5 3 2 5 8 5 5 6 6 6 5 4 5 8 5 5 7 6 5 5 6 5 4
3 3 1 4 7 7 2 1 3 5 3 3 2 2 6 4 3 3 3 4 3 4 3 4 4 2 1 4 3 5 6 11 16 8 8 7 9 6 8 8 6 4 4 4 4
3 3 1 0 1 8 8 5 8 4 4 3 2 6 3 7 6 8 7 5 4 4 3 1 3 3 2 4 3 5 8 8 14 17 8 5 19 10 3 2 2 5 4 4 4
2 1 1 1 1 3 4 5 5 6 4 3 6 4 4 5 4 1 3 5 8 7 4 5 6 3 3 1 2 7 14 15 7 4 15 14 10 3 4 3 4 2 0 1 5
Wind_Direction
290 285 279 289 295 308 314 318 322 328 335 328 313 303 300 309 313 225 232 193 176 230 25 298 211 278 67 31 359 99 74 223 252 201 205 352 29 347 298 291 357 15 165 249 146
286 280 279 280 293 298 301 313 315 319 324 327 316 306 307 320 288 253 179 166 178 197 145 140 176 132 43 201 307 114 140 221 232 304 226 320 27 319 320 290 289 253 23 50 145
279 278 275 273 278 283 297 306 310 312 314 321 312 302 307 325 294 230 166 172 183 113 162 334 321 161 154 150 205 180 205 216 222 169 179 238 287 301 294 293 231 219 179 154 171
268 266 266 259 266 280 286 295 305 309 309 317 311 298 314 278 237 190 170 173 189 198 157 154 133 140 201 199 210 203 233 241 267 61 258 245 267 299 227 233 89 47 190 170 185
252 250 248 256 247 251 259 282 293 302 302 310 307 305 330 221 253 176 170 185 157 173 200 173 161 172 190 203 204 217 275 304 265 288 254 248 235 236 263 259 265 262 171 199 210
240 237 240 245 258 266 272 282 287 295 298 304 289 92 257 243 114 155 169 156 188 187 208 168 201 194 208 229 187 207 271 272 282 264 252 235 269 135 270 314 320 305 241 212 207
238 233 230 237 253 247 255 274 283 295 289 290 268 218 247 245 150 165 165 192 159 167 162 110 131 181 153 278 346 351 312 326 247 276 211 152 288 227 259 304 269 292 287 254 229
230 231 230 232 237 239 247 265 283 287 286 274 248 202 246 110 168 155 153 126 170 106 116 131 101 134 162 209 25 10 47 332 296 121 292 119 266 269 268 144 312 312 320 288 261
226 230 233 231 209 216 243 278 290 285 256 238 194 202 255 139 168 188 156 157 130 92 86 109 94 135 51 99 11 331 224 208 304 109 131 167 263 270 302 333 309 303 308 318 318
332 245 296 217 193 213 222 305 332 336 242 209 263 297 192 211 158 155 167 150 146 125 70 90 65 101 61 125 217 196 209 228 230 356 337 269 266 283 290 304 293 341 15 28 39
28 28 59 9 323 237 191 125 173 207 227 200 185 227 128 128 99 152 158 122 118 132 164 204 131 205 205 204 148 148 182 226 256 108 294 235 269 287 301 4 68 58 57 54 33
32 31 358 4 337 242 223 203 245 127 241 230 239 238 147 180 122 188 149 154 168 186 131 81 229 219 194 196 193 185 189 246 284 47 355 334 290 297 359 22 94 106 84 81 95
31 19 358 342 358 276 239 236 360 319 229 220 190 201 179 155 191 188 161 171 173 169 189 171 252 149 153 160 159 190 186 201 208 332 13 337 308 334 47 86 74 50 79 73 110
5 11 335 328 301 292 230 171 227 286 233 213 197 210 153 139 227 166 186 165 195 193 165 229 205 160 164 187 138 193 156 120 97 64 235 15 281 283 170 178 285 120 122 126 131
294 314 308 315 297 259 345 132 187 97 242 118 143 129 149 164 136 222 164 123 172 179 136 220 166 162 158 186 139 200 126 112 113 92 50 336 85 269 175 217 250 244 225 298 273
286 308 312 286 200 244 142 246 178 202 238 186 130 169 135 148 124 129 151 54 121 116 48 126 63 118 151 92 105 137 94 64 57 90 331 233 145 259 206 195 209 237 278 304 305
289 302 294 259 236 130 111 241 209 221 160 187 182 169 168 154 135 155 165 174 165 141 177 109 114 45 111 96 70 84 98 359 348 1 219 289 129 251 229 209 198 237 299 305 308
298 304 266 242 264 151 141 241 239 190 201 134 133 144 187 145 177 168 138 190 243 116 122 155 238 169 168 171 172 181 156 166 203 194 256 347 234 257 220 244 263 263 262 294 335
300 267 236 229 204 172 162 225 242 221 176 135 134 129 211 201 139 147 181 194 199 188 155 134 132 72 55 33 104 191 184 148 101 32 70 231 286 283 141 339 332 340 350 332 326
114 278 254 208 150 168 214 223 232 279 308 108 143 158 175 194 143 174 172 196 188 187 153 181 109 181 148 102 29 137 160 84 359 135 250 282 275 234 217 236 297 316 312 317 324
37 259 266 136 129 200 226 202 207 217 295 130 230 163 169 178 161 183 179 17 125 120 108 128 102 125 116 203 175 152 154 69 112 131 166 248 262 213 179 189 211 260 275 286 306
229 242 186 186 183 216 234 179 151 221 289 135 173 157 166 152 135 164 155 71 142 147 145 148 107 143 212 240 158 187 187 146 132 231 212 160 271 203 178 195 197 263 281 278 271
221 236 147 245 205 225 278 258 174 167 206 191 116 16 154 125 122 124 108 18 112 92 151 174 170 122 130 174 208 218 181 143 135 90 204 149 259 336 282 289 244 245 267 271 293
241 219 193 198 269 187 201 262 145 234 166 175 150 89 76 72 42 126 113 67 38 102 113 90 127 166 187 186 138 189 185 172 138 142 191 227 269 285 257 237 282 259 258 262 278
217 243 225 195 223 244 176 194 174 190 182 149 99 182 171 122 107 121 109 100 45 138 66 111 174 103 11 84 143 182 186 194 210 199 183 235 210 229 219 223 232 233 278 289 291
188 208 230 139 267 205 220 200 216 162 168 187 194 179 144 156 177 184 142 172 173 136 130 28 124 94 332 2 79 246 239 227 223 236 254 234 280 205 235 264 263 260 264 271 281
210 296 220 302 164 178 228 183 208 156 210 171 181 142 133 181 136 152 120 138 150 140 142 142 135 102 256 56 93 302 224 197 214 243 217 231 230 189 242 246 250 344 40 308 289